TimeCDT,TemperatureF,Dew PointF,Humidity,Sea Level PressureIn,VisibilityMPH,Wind Direction,Wind SpeedMPH,Gust SpeedMPH,PrecipitationIn,Events,Conditions,WindDirDegrees,DateUTC
12:53 AM,64.0,60.1,87,30.09,10.0,ENE,3.5,-,N/A,,Clear,60,2013-07-13 05:53:00
1:53 AM,63.0,59.0,87,30.09,10.0,ENE,4.6,-,N/A,,Clear,70,2013-07-13 06:53:00
2:53 AM,63.0,59.0,87,30.11,10.0,ENE,4.6,-,N/A,,Clear,70,2013-07-13 07:53:00
3:53 AM,63.0,59.0,87,30.11,10.0,NE,4.6,-,N/A,,Clear,50,2013-07-13 08:53:00
4:53 AM,63.0,57.9,84,30.10,10.0,NE,5.8,-,N/A,,Clear,50,2013-07-13 09:53:00
5:53 AM,63.0,59.0,87,30.12,10.0,ENE,5.8,-,N/A,,Clear,60,2013-07-13 10:53:00
6:53 AM,64.9,60.1,84,30.11,10.0,ENE,5.8,-,N/A,,Clear,70,2013-07-13 11:53:00
7:53 AM,69.1,62.1,78,30.13,10.0,ENE,5.8,-,N/A,,Clear,60,2013-07-13 12:53:00
8:53 AM,71.1,63.0,75,30.14,10.0,ENE,8.1,-,N/A,,Clear,70,2013-07-13 13:53:00
9:53 AM,75.9,64.0,67,30.14,10.0,ENE,5.8,-,N/A,,Clear,70,2013-07-13 14:53:00
10:53 AM,78.1,64.9,64,30.13,10.0,ENE,8.1,-,N/A,,Clear,70,2013-07-13 15:53:00
11:53 AM,79.0,64.9,62,30.12,10.0,ENE,9.2,16.1,N/A,,Partly Cloudy,70,2013-07-13 16:53:00
12:53 PM,81.0,64.0,56,30.12,10.0,East,9.2,-,N/A,,Partly Cloudy,80,2013-07-13 17:53:00
1:53 PM,81.0,64.0,56,30.10,10.0,East,10.4,-,N/A,,Partly Cloudy,90,2013-07-13 18:53:00
2:53 PM,81.0,64.0,56,30.10,10.0,ENE,8.1,-,N/A,,Partly Cloudy,60,2013-07-13 19:53:00
3:53 PM,82.9,64.0,53,30.08,10.0,ENE,8.1,-,N/A,,Partly Cloudy,60,2013-07-13 20:53:00
4:53 PM,82.0,64.0,54,30.08,10.0,East,10.4,-,N/A,,Partly Cloudy,90,2013-07-13 21:53:00
5:53 PM,82.0,64.0,54,30.07,10.0,East,9.2,-,N/A,,Partly Cloudy,90,2013-07-13 22:53:00
6:53 PM,81.0,64.9,58,30.07,10.0,East,6.9,-,N/A,,Clear,80,2013-07-13 23:53:00
7:53 PM,77.0,66.0,69,30.09,10.0,East,4.6,-,N/A,,Clear,80,2013-07-14 00:53:00
8:53 PM,73.9,66.0,76,30.09,10.0,ENE,6.9,-,N/A,,Clear,60,2013-07-14 01:53:00
9:53 PM,72.0,66.0,81,30.10,10.0,ENE,5.8,-,N/A,,Clear,70,2013-07-14 02:53:00
10:53 PM,70.0,66.0,87,30.11,10.0,ENE,5.8,-,N/A,,Partly Cloudy,70,2013-07-14 03:53:00
11:53 PM,71.1,66.0,84,30.11,10.0,ENE,5.8,-,N/A,,Clear,70,2013-07-14 04:53:00